[Iaude] MPEC L87: 2022 LE3 [a=2.89,e=0.56,i=23.0,H=20.3]

mpec at marsden.cfa.harvard.edu mpec at marsden.cfa.harvard.edu
Sat Jun 11 12:16:13 EDT 2022


M.P.E.C. 2022-L87                                 Issued 2022 June 11, 16:14 UT

     The Minor Planet Electronic Circulars contain information on unusual
         minor planets and routine data on comets.  They are published
    on behalf of Division F of the International Astronomical Union by the
          Minor Planet Center, Smithsonian Astrophysical Observatory,
                          Cambridge, MA 02138, U.S.A.

             Prepared using the Tamkin Foundation Computer Network

                              MPC at CFA.HARVARD.EDU
            URL https://www.minorplanetcenter.net/    ISSN 1523-6714

                                    2022 LE3                                    


Observations:
     K22L03E  C2022 06 04.32165 15 34 23.37 +32 36 04.8          22.4 GVEL087G96
     K22L03E  C2022 06 04.33209 15 34 22.83 +32 36 03.1          22.6 GVEL087G96
     K22L03E  C2022 06 04.33730 15 34 22.52 +32 36 01.1          21.4 GVEL087G96
     K22L03E* C2022 06 07.26998015 32 02.987+32 25 29.11         21.97wUEL087F52
     K22L03E  C2022 06 07.28216915 32 02.369+32 25 25.72         22.06wUEL087F52
     K22L03E  C2022 06 07.29426215 32 01.755+32 25 22.50         21.70wUEL087F52
     K22L03E  C2022 06 07.30641315 32 01.128+32 25 19.28         21.97wUEL087F52
     K22L03E KC2022 06 08.17883915 31 21.280+32 20 49.30               VEL087I52
     K22L03E KC2022 06 08.19143515 31 20.710+32 20 44.30         21.63GVEL087I52
     K22L03E KC2022 06 08.20403115 31 20.020+32 20 41.20               VEL087I52
     K22L03E KC2022 06 08.30817115 31 14.923+32 20 06.18         21.83GVEL087G84
     K22L03E KC2022 06 08.32246415 31 14.257+32 20 00.24         22.04GVEL087G84
     K22L03E KC2022 06 09.11288615 30 39.75 +32 15 20.7          21.8 VuEL087H21
     K22L03E KC2022 06 09.11966515 30 39.45 +32 15 18.3          22.3 VuEL087H21
     K22L03E KC2022 06 09.12433415 30 39.24 +32 15 17.1          22.1 VuEL087H21
     K22L03E DC2022 06 11.25870 15 29 08.70 +32 00 15.4          22.2 GVEL087695
     K22L03E DC2022 06 11.26747 15 29 08.31 +32 00 11.4          22.5 GVEL087695
     K22L03E DC2022 06 11.27626 15 29 07.92 +32 00 07.0                VEL087695

Observer details:
695 Kitt Peak.  Observer R. A. Mastaler.  2.3-m f/9 reflector + CCD.
F52 Pan-STARRS 2, Haleakala.  Observers J. Bulger, T. Lowe, A. Schultz, I.
    Smith.  Measurers K. Chambers, S. Chastel, T. de Boer, J. Fairlamb, H.
    Gao, M. Huber, C.-C. Lin, E. Magnier, Y. Ramanjooloo, R. Wainscoat, R.
    Weryk.  1.8-m Ritchey-Chretien + CCD.
G84 Mount Lemmon SkyCenter.  Observer D. Rankin.  Measurers E. J. Christensen,
    D. Fay, J. B. Fazekas, D. C. Fuls, A. R. Gibbs, A. D. Grauer, H. Groeller,
    J. K. Hogan, R. A. Kowalski, S. M. Larson, G. J. Leonard, D. Rankin, R. L.
    Seaman, A. Serrano, F. C. Shelly, K. W. Wierzchos.  0.8-m f/7.0 reflector
    + CMOS.
G96 Mt. Lemmon Survey.  Observer A. Serrano.  Measurers B. Gray, D. Rankin, F.
    C. Shelly.  1.5-m reflector + 10K CCD.
H21 Astronomical Research Observatory, Westfield.  Observer R. Holmes.
    Measurers T. Linder, R. Holmes, L. Horn.  1.3-m f/4.0 astrograph + CCD.
I52 Steward Observatory, Mt. Lemmon Station.  Observer D. Rankin.  Measurers
    E. J. Christensen, D. Fay, J. B. Fazekas, D. C. Fuls, A. R. Gibbs, A. D.
    Grauer, H. Groeller, J. K. Hogan, R. A. Kowalski, S. M. Larson, G. J.
    Leonard, D. Rankin, R. L. Seaman, A. Serrano, F. C. Shelly, K. W.
    Wierzchos.  1.0-m prime focus + CCD.

Orbital elements:
2022 LE3                                                 Earth MOID = 0.2729 AU
Epoch 2022 Aug. 9.0 TT = JDT 2459800.5                  Veres                   
M 356.02445              (2000.0)            P               Q                  
n   0.20056522     Peri.  164.90640     +0.56847936     +0.78154853             
a   2.8904511      Node   138.79700     -0.78943640     +0.60611495             
e   0.5580277      Incl.   22.95695     -0.23156292     -0.14767044             
P   4.91           H   20.32          G   0.15           U   8                  
Residuals in seconds of arc
220604 G96  0.1-  0.0     220607 F52  0.1-  0.0     220609 H21  0.0   0.3-
220604 G96  0.2+  0.0     220608 I52  0.1-  0.4+    220609 H21  0.3+  0.2-
220604 G96 (0.2-  1.1-)   220608 I52  0.6+  0.6-    220609 H21  0.5+  0.3+
220607 F52  0.0   0.1+    220608 I52  0.2-  0.3+    220611 695  1.0-  2.2-
220607 F52  0.0   0.1-    220608 G84  0.7+  0.1+    220611 695  0.9-  2.0-
220607 F52  0.0   0.1-    220608 G84  1.1+  0.9-    220611 695  0.8-  2.2-

Ephemeris:
2022 LE3                 a,e,i = 2.89, 0.56, 23                  q = 1.2775
Date    TT    R. A. (2000) Decl.     Delta      r    Elong.  Phase     V
2022 05 12    15 53 47.8 +30 18 07   0.8937  1.7314   130.8    26.2    22.5
...
2022 05 27    15 41 35.4 +32 30 01   0.8214  1.6350   125.7    30.2    22.3
...
2022 06 04    15 34 39.6 +32 36 50   0.7910  1.5857   122.4    32.7    22.2
...
2022 06 10    15 30 01.2 +32 09 35   0.7710  1.5500   119.8    34.6    22.1
2022 06 11    15 29 19.5 +32 02 19   0.7678  1.5442   119.3    35.0    22.1
2022 06 12    15 28 39.3 +31 54 15   0.7647  1.5384   118.9    35.3    22.1
...
2022 06 18    15 25 15.9 +30 49 42   0.7469  1.5044   116.3    37.2    22.1
...
2022 06 26    15 22 44.8 +28 40 46   0.7252  1.4614   113.0    39.8    22.0
...
2022 07 11    15 25 41.6 +22 33 26   0.6894  1.3900   107.6    44.2    21.9

M. P. C. Staff               (C) Copyright 2022 MPC           M.P.E.C. 2022-L87




More information about the Iaude mailing list